TimeCST,TemperatureF,Dew PointF,Humidity,Sea Level PressureIn,VisibilityMPH,Wind Direction,Wind SpeedMPH,Gust SpeedMPH,PrecipitationIn,Events,Conditions,WindDirDegrees,DateUTC
12:15 AM,33.8,28.4,81,30.21,10.0,SSW,5.8,-,N/A,,Clear,210,2013-01-06 06:15:00
12:35 AM,32.0,28.4,87,30.22,10.0,SSW,4.6,-,N/A,,Clear,210,2013-01-06 06:35:00
12:55 AM,30.2,26.6,86,30.22,10.0,SW,3.5,-,N/A,,Clear,220,2013-01-06 06:55:00
1:15 AM,30.2,28.4,93,30.22,10.0,WSW,3.5,-,N/A,,Clear,240,2013-01-06 07:15:00
1:35 AM,30.2,28.4,93,30.22,10.0,West,4.6,-,N/A,,Clear,260,2013-01-06 07:35:00
1:55 AM,32.0,28.4,87,30.23,10.0,WSW,4.6,-,N/A,,Clear,240,2013-01-06 07:55:00
2:15 AM,30.2,28.4,93,30.23,10.0,WSW,5.8,-,N/A,,Clear,240,2013-01-06 08:15:00
2:35 AM,30.2,28.4,93,30.24,10.0,WSW,5.8,-,N/A,,Clear,240,2013-01-06 08:35:00
2:55 AM,30.2,26.6,86,30.23,8.0,WSW,5.8,-,N/A,,Clear,250,2013-01-06 08:55:00
3:15 AM,30.2,26.6,86,30.24,7.0,WSW,5.8,-,N/A,,Clear,250,2013-01-06 09:15:00
3:55 AM,28.4,26.6,93,30.24,3.0,West,3.5,-,N/A,,Clear,270,2013-01-06 09:55:00
4:15 AM,28.4,24.8,86,30.24,5.0,WNW,4.6,-,N/A,,Clear,300,2013-01-06 10:15:00
4:55 AM,28.4,24.8,86,30.24,7.0,WNW,4.6,-,N/A,,Clear,300,2013-01-06 10:55:00
5:35 AM,28.4,24.8,86,30.25,10.0,NW,4.6,-,N/A,,Clear,310,2013-01-06 11:35:00
5:55 AM,28.4,24.8,86,30.25,10.0,NW,5.8,-,N/A,,Clear,310,2013-01-06 11:55:00
6:15 AM,28.4,24.8,86,30.26,10.0,WNW,5.8,-,N/A,,Clear,300,2013-01-06 12:15:00
6:35 AM,28.4,23.0,80,30.27,10.0,WNW,4.6,-,N/A,,Clear,300,2013-01-06 12:35:00
6:55 AM,26.6,23.0,86,30.28,10.0,WNW,4.6,-,N/A,,Clear,300,2013-01-06 12:55:00
7:15 AM,26.6,21.2,80,30.29,10.0,NW,3.5,-,N/A,,Clear,310,2013-01-06 13:15:00
7:35 AM,26.6,21.2,80,30.30,10.0,NW,4.6,-,N/A,,Clear,310,2013-01-06 13:35:00
7:55 AM,28.4,21.2,74,30.30,10.0,NW,4.6,-,N/A,,Clear,320,2013-01-06 13:55:00
8:15 AM,28.4,23.0,80,30.31,10.0,NNW,6.9,-,N/A,,Clear,330,2013-01-06 14:15:00
8:35 AM,30.2,23.0,75,30.31,10.0,NNW,8.1,-,N/A,,Clear,340,2013-01-06 14:35:00
8:55 AM,30.2,23.0,75,30.31,10.0,North,10.4,-,N/A,,Clear,350,2013-01-06 14:55:00
9:15 AM,30.2,23.0,75,30.32,10.0,NNW,11.5,-,N/A,,Clear,340,2013-01-06 15:15:00
9:35 AM,32.0,23.0,69,30.33,10.0,North,11.5,-,N/A,,Clear,360,2013-01-06 15:35:00
9:55 AM,32.0,23.0,69,30.33,10.0,North,8.1,-,N/A,,Clear,10,2013-01-06 15:55:00
10:35 AM,33.8,23.0,65,30.35,10.0,NNW,6.9,-,N/A,,Clear,340,2013-01-06 16:35:00
10:55 AM,35.6,21.2,56,30.34,10.0,North,9.2,-,N/A,,Clear,360,2013-01-06 16:55:00
11:15 AM,37.4,23.0,56,30.34,10.0,North,6.9,-,N/A,,Clear,350,2013-01-06 17:15:00
11:35 AM,37.4,23.0,56,30.34,10.0,NNW,6.9,-,N/A,,Clear,330,2013-01-06 17:35:00
11:55 AM,39.2,23.0,52,30.33,10.0,NW,4.6,-,N/A,,Clear,320,2013-01-06 17:55:00
12:15 PM,39.2,23.0,52,30.32,10.0,NNW,5.8,-,N/A,,Clear,340,2013-01-06 18:15:00
12:35 PM,41.0,24.8,53,30.31,10.0,NNW,3.5,-,N/A,,Clear,340,2013-01-06 18:35:00
12:55 PM,42.8,23.0,46,30.31,10.0,North,4.6,-,N/A,,Clear,10,2013-01-06 18:55:00
1:15 PM,42.8,21.2,42,30.30,10.0,North,10.4,-,N/A,,Clear,360,2013-01-06 19:15:00
1:35 PM,44.6,23.0,43,30.30,10.0,North,11.5,-,N/A,,Clear,360,2013-01-06 19:35:00
1:55 PM,44.6,21.2,39,30.30,10.0,North,13.8,17.3,N/A,,Clear,360,2013-01-06 19:55:00
2:15 PM,44.6,21.2,39,30.31,10.0,North,6.9,-,N/A,,Clear,360,2013-01-06 20:15:00
2:35 PM,44.6,19.4,37,30.31,10.0,NNW,8.1,-,N/A,,Clear,340,2013-01-06 20:35:00
2:55 PM,44.6,19.4,37,30.31,10.0,North,6.9,-,N/A,,Clear,350,2013-01-06 20:55:00
3:15 PM,44.6,19.4,37,30.31,10.0,North,8.1,-,N/A,,Clear,350,2013-01-06 21:15:00
3:35 PM,44.6,19.4,37,30.31,10.0,NNW,4.6,-,N/A,,Clear,340,2013-01-06 21:35:00
4:15 PM,44.6,19.4,37,30.32,10.0,North,5.8,-,N/A,,Clear,360,2013-01-06 22:15:00
4:35 PM,44.6,17.6,34,30.31,10.0,North,5.8,-,N/A,,Clear,350,2013-01-06 22:35:00
4:55 PM,42.8,17.6,36,30.31,10.0,Calm,Calm,-,N/A,,Clear,0,2013-01-06 22:55:00
5:15 PM,41.0,17.6,39,30.31,10.0,NE,6.9,-,N/A,,Clear,50,2013-01-06 23:15:00
5:35 PM,39.2,17.6,42,30.31,10.0,NE,4.6,-,N/A,,Clear,40,2013-01-06 23:35:00
5:55 PM,37.4,17.6,45,30.31,10.0,Calm,Calm,-,N/A,,Clear,0,2013-01-06 23:55:00
6:15 PM,35.6,17.6,48,30.31,10.0,Calm,Calm,-,N/A,,Clear,0,2013-01-07 00:15:00
6:35 PM,35.6,19.4,52,30.32,10.0,NE,3.5,-,N/A,,Clear,50,2013-01-07 00:35:00
6:55 PM,35.6,17.6,48,30.32,10.0,Calm,Calm,-,N/A,,Clear,0,2013-01-07 00:55:00
7:15 PM,33.8,23.0,65,30.32,10.0,Calm,Calm,-,N/A,,Clear,0,2013-01-07 01:15:00
7:35 PM,32.0,23.0,69,30.33,10.0,NE,3.5,-,N/A,,Clear,40,2013-01-07 01:35:00
7:55 PM,30.2,23.0,75,30.33,10.0,Calm,Calm,-,N/A,,Clear,0,2013-01-07 01:55:00
8:15 PM,32.0,19.4,60,30.32,10.0,ENE,3.5,-,N/A,,Clear,60,2013-01-07 02:15:00
8:35 PM,-9999,-9999,N/A,30.32,10.0,East,3.5,-,N/A,,Clear,80,2013-01-07 02:35:00
9:15 PM,28.4,17.6,64,30.33,10.0,Calm,Calm,-,N/A,,Clear,0,2013-01-07 03:15:00
10:15 PM,26.6,19.4,74,30.33,10.0,Calm,Calm,-,N/A,,Clear,0,2013-01-07 04:15:00
10:55 PM,24.8,17.6,74,30.33,10.0,Calm,Calm,-,N/A,,Clear,0,2013-01-07 04:55:00
11:35 PM,26.6,19.4,74,30.33,10.0,Calm,Calm,-,N/A,,Clear,0,2013-01-07 05:35:00